AAL311 KLAS-KSTL

Flight info

Callsign AAL311
Flight time 2h 30m
Altitude 35000
Route GIDGT3 TUKRR PUB/N0442F370 KD51Y KK54E ANX KAYLA3
Aircraft A306/H-SDE3FGHIRWY/LB1

Departure

Time 2026-05-05 13:16
Airport Harry Reid International Airport (KLAS)

Arrival

Time 2026-05-05 15:46
Airport St. Louis Lambert International Airport (KSTL)
Time Latitude Longitude Altitude Speed Heading
2026-05-05 12:50 36.08049 -115.13651 2099 ft 0 kts 44°
2026-05-05 13:03 36.08043 -115.13658 2099 ft 4 kts 45°
2026-05-05 13:04 36.08026 -115.13684 2100 ft 4 kts 56°
2026-05-05 13:04 36.08013 -115.13712 2098 ft 4 kts 78°
2026-05-05 13:04 36.08015 -115.13739 2098 ft 3 kts 133°
2026-05-05 13:04 36.08016 -115.13741 2102 ft 1 kts 135°
2026-05-05 13:09 36.08015 -115.13741 2099 ft 1 kts 135°
2026-05-05 13:10 36.07996 -115.13717 2098 ft 5 kts 136°
2026-05-05 13:10 36.07971 -115.13687 2098 ft 5 kts 136°
2026-05-05 13:10 36.07951 -115.13663 2098 ft 4 kts 135°
2026-05-05 13:10 36.07918 -115.13622 2098 ft 9 kts 135°
2026-05-05 13:11 36.07863 -115.13556 2098 ft 13 kts 135°
2026-05-05 13:11 36.07828 -115.13468 2097 ft 13 kts 94°
2026-05-05 13:11 36.07828 -115.13342 2095 ft 17 kts 90°
2026-05-05 13:11 36.07827 -115.13183 2091 ft 19 kts 90°
2026-05-05 13:12 36.07827 -115.13010 2084 ft 21 kts 90°
2026-05-05 13:12 36.07828 -115.12819 2072 ft 23 kts 90°
2026-05-05 13:12 36.07828 -115.12615 2069 ft 24 kts 90°
2026-05-05 13:12 36.07828 -115.12405 2063 ft 24 kts 90°
2026-05-05 13:13 36.07826 -115.12283 2060 ft 9 kts 98°
2026-05-05 13:13 36.07796 -115.12220 2058 ft 6 kts 127°
2026-05-05 13:13 36.07767 -115.12174 2056 ft 7 kts 128°
2026-05-05 13:13 36.07732 -115.12136 2059 ft 6 kts 162°
2026-05-05 13:14 36.07694 -115.12125 2055 ft 5 kts 171°
2026-05-05 13:14 36.07664 -115.12127 2056 ft 4 kts 188°
2026-05-05 13:14 36.07651 -115.12138 2054 ft 3 kts 224°
2026-05-05 13:14 36.07643 -115.12176 2055 ft 5 kts 270°
2026-05-05 13:15 36.07643 -115.12233 2056 ft 14 kts 270°
2026-05-05 13:15 36.07642 -115.12547 2067 ft 70 kts 269°
2026-05-05 13:15 36.07641 -115.13474 2095 ft 144 kts 270°
2026-05-05 13:15 36.07643 -115.15006 2295 ft 203 kts 266°
2026-05-05 13:16 36.07609 -115.16751 3658 ft 196 kts 268°
2026-05-05 13:16 36.07612 -115.18425 5017 ft 191 kts 268°
2026-05-05 13:16 36.07623 -115.20071 6032 ft 197 kts 268°
2026-05-05 13:16 36.07627 -115.21871 6597 ft 220 kts 268°
2026-05-05 13:17 36.07630 -115.23803 7320 ft 230 kts 268°
2026-05-05 13:17 36.07705 -115.25804 8142 ft 235 kts 278°
2026-05-05 13:17 36.08368 -115.27657 8962 ft 243 kts 308°
2026-05-05 13:17 36.09806 -115.28854 9576 ft 263 kts 340°
2026-05-05 13:18 36.11617 -115.29429 10303 ft 273 kts 348°
2026-05-05 13:18 36.13497 -115.29643 11186 ft 276 kts
2026-05-05 13:18 36.15331 -115.28943 12039 ft 280 kts 32°
2026-05-05 13:18 36.16769 -115.27250 12506 ft 298 kts 57°
2026-05-05 13:19 36.17752 -115.24903 12815 ft 318 kts 69°
2026-05-05 13:19 36.18569 -115.22271 13124 ft 337 kts 71°
2026-05-05 13:19 36.19348 -115.19444 13426 ft 355 kts 77°
2026-05-05 13:19 36.19653 -115.16373 13882 ft 364 kts 89°
2026-05-05 13:20 36.19669 -115.13219 14457 ft 369 kts 91°
2026-05-05 13:20 36.19653 -115.10021 15018 ft 374 kts 91°
2026-05-05 13:20 36.19640 -115.06792 15618 ft 378 kts 91°
2026-05-05 13:20 36.19633 -115.03505 16212 ft 382 kts 91°
2026-05-05 13:21 36.19628 -115.00197 16818 ft 386 kts 91°
2026-05-05 13:21 36.19625 -114.96869 17412 ft 390 kts 91°
2026-05-05 13:21 36.19621 -114.93466 18016 ft 395 kts 91°
2026-05-05 13:21 36.19617 -114.90099 18547 ft 399 kts 91°
2026-05-05 13:22 36.19613 -114.86652 19073 ft 402 kts 91°
2026-05-05 13:22 36.19608 -114.83173 19601 ft 406 kts 91°
2026-05-05 13:22 36.19601 -114.79662 20135 ft 409 kts 92°
2026-05-05 13:22 36.19594 -114.76123 20660 ft 413 kts 92°
2026-05-05 13:23 36.19586 -114.72555 21176 ft 416 kts 92°
2026-05-05 13:23 36.19576 -114.68955 21698 ft 420 kts 92°
2026-05-05 13:23 36.19569 -114.65325 22201 ft 423 kts 92°
2026-05-05 13:23 36.19561 -114.61666 22673 ft 427 kts 92°
2026-05-05 13:24 36.19552 -114.57978 23152 ft 430 kts 92°
2026-05-05 13:24 36.19542 -114.54260 23583 ft 433 kts 92°
2026-05-05 13:24 36.19528 -114.50513 23950 ft 437 kts 93°
2026-05-05 13:24 36.19515 -114.46736 24312 ft 441 kts 93°
2026-05-05 13:25 36.19503 -114.42930 24666 ft 444 kts 93°
2026-05-05 13:25 36.19489 -114.39096 25022 ft 447 kts 93°
2026-05-05 13:25 36.19473 -114.35233 25331 ft 451 kts 93°
2026-05-05 13:25 36.19455 -114.31336 25652 ft 454 kts 93°
2026-05-05 13:26 36.19442 -114.28728 25897 ft 456 kts 93°
2026-05-05 13:26 36.19547 -114.23494 26317 ft 463 kts 88°
2026-05-05 13:26 36.19947 -114.19523 26638 ft 467 kts 84°
2026-05-05 13:26 36.20424 -114.15536 26971 ft 470 kts 84°
2026-05-05 13:27 36.20911 -114.11525 27272 ft 473 kts 84°
2026-05-05 13:27 36.21240 -114.08804 27472 ft 475 kts 84°
2026-05-05 13:27 36.21722 -114.04784 27720 ft 478 kts 85°
2026-05-05 13:27 36.22220 -114.00601 27906 ft 484 kts 85°
2026-05-05 13:28 36.22704 -113.96524 28203 ft 486 kts 85°
2026-05-05 13:28 36.23192 -113.92391 28484 ft 489 kts 85°
2026-05-05 13:28 36.23684 -113.88212 28730 ft 491 kts 85°
2026-05-05 13:28 36.24177 -113.84012 29016 ft 494 kts 85°
2026-05-05 13:29 36.24671 -113.79787 29284 ft 497 kts 85°
2026-05-05 13:29 36.25166 -113.75542 29542 ft 499 kts 85°
2026-05-05 13:29 36.25661 -113.71271 29681 ft 504 kts 85°
2026-05-05 13:29 36.26160 -113.66959 29881 ft 507 kts 85°
2026-05-05 13:30 36.26660 -113.62628 30099 ft 509 kts 85°
2026-05-05 13:30 36.27160 -113.58277 30279 ft 511 kts 86°
2026-05-05 13:30 36.27661 -113.53903 30453 ft 514 kts 86°
2026-05-05 13:30 36.28163 -113.49508 30612 ft 516 kts 86°
2026-05-05 13:31 36.28666 -113.45093 30874 ft 516 kts 86°
2026-05-05 13:31 36.29165 -113.40725 31428 ft 509 kts 86°
2026-05-05 13:31 36.29658 -113.36371 31643 ft 511 kts 87°
2026-05-05 13:31 36.30143 -113.32037 31903 ft 513 kts 87°
2026-05-05 13:32 36.30634 -113.27654 32139 ft 515 kts 88°
2026-05-05 13:32 36.31257 -113.23254 32259 ft 524 kts 81°
2026-05-05 13:32 36.32455 -113.18939 32480 ft 532 kts 71°
2026-05-05 13:32 36.33916 -113.14731 32972 ft 529 kts 69°
2026-05-05 13:33 36.35395 -113.10573 33401 ft 526 kts 69°
2026-05-05 13:33 36.36875 -113.06402 33484 ft 532 kts 70°
2026-05-05 13:33 36.39865 -112.97920 33843 ft 538 kts 70°
2026-05-05 13:34 36.41368 -112.93642 34079 ft 538 kts 70°
2026-05-05 13:34 36.42873 -112.89352 34372 ft 538 kts 70°
2026-05-05 13:34 36.44360 -112.85102 34686 ft 536 kts 70°
2026-05-05 13:34 36.45846 -112.80850 34886 ft 536 kts 70°
2026-05-05 13:35 36.48792 -112.72399 34919 ft 537 kts 70°
2026-05-05 13:35 36.51743 -112.63901 34935 ft 539 kts 71°
2026-05-05 13:36 36.54710 -112.55344 34929 ft 539 kts 71°
2026-05-05 13:36 36.57677 -112.46760 34921 ft 538 kts 71°
2026-05-05 13:37 36.60613 -112.38242 34928 ft 541 kts 71°
2026-05-05 13:37 36.63577 -112.29614 34924 ft 542 kts 71°
2026-05-05 13:38 36.66546 -112.20950 34927 ft 542 kts 71°
2026-05-05 13:38 36.69501 -112.12303 34897 ft 542 kts 71°
2026-05-05 13:39 36.72454 -112.03632 34908 ft 544 kts 71°
2026-05-05 13:39 36.75410 -111.94929 34912 ft 545 kts 71°
2026-05-05 13:40 36.78344 -111.86265 34903 ft 546 kts 71°
2026-05-05 13:40 36.81295 -111.77528 34863 ft 546 kts 71°
2026-05-05 13:41 36.84246 -111.68766 34897 ft 549 kts 71°
2026-05-05 13:41 36.86768 -111.59761 34901 ft 545 kts 78°
2026-05-05 13:42 36.88881 -111.50691 34971 ft 543 kts 79°
2026-05-05 13:42 36.90920 -111.41673 34942 ft 541 kts 79°
2026-05-05 13:43 36.92985 -111.32618 34941 ft 540 kts 79°
2026-05-05 13:43 36.95058 -111.23588 34927 ft 540 kts 79°
2026-05-05 13:44 36.97133 -111.14559 34909 ft 540 kts 79°
2026-05-05 13:44 36.99201 -111.05523 34885 ft 541 kts 79°
2026-05-05 13:45 37.01258 -110.96515 34885 ft 543 kts 79°
2026-05-05 13:45 37.03319 -110.87426 34886 ft 543 kts 79°
2026-05-05 13:46 37.05370 -110.78372 34882 ft 532 kts 79°
2026-05-05 13:46 37.07372 -110.69488 34884 ft 530 kts 80°
2026-05-05 13:47 37.09361 -110.60610 34887 ft 531 kts 80°
2026-05-05 13:47 37.11353 -110.51684 34889 ft 531 kts 80°
2026-05-05 13:48 37.13330 -110.42778 34888 ft 531 kts 80°
2026-05-05 13:48 37.15319 -110.33808 34879 ft 533 kts 80°
2026-05-05 13:49 37.17296 -110.24869 34884 ft 533 kts 80°
2026-05-05 13:49 37.19268 -110.15911 34890 ft 533 kts 80°
2026-05-05 13:50 37.21221 -110.07002 34882 ft 534 kts 79°
2026-05-05 13:50 37.23179 -109.98025 34887 ft 533 kts 79°
2026-05-05 13:51 37.25135 -109.89018 34883 ft 534 kts 80°
2026-05-05 13:51 37.27087 -109.80004 34884 ft 534 kts 80°
2026-05-05 13:52 37.29025 -109.71022 34881 ft 534 kts 80°
2026-05-05 13:52 37.30961 -109.62012 34907 ft 534 kts 80°
2026-05-05 13:53 37.32879 -109.53047 34919 ft 534 kts 80°
2026-05-05 13:53 37.34801 -109.44030 34923 ft 534 kts 79°
2026-05-05 13:54 37.36717 -109.34999 34927 ft 535 kts 79°
2026-05-05 13:54 37.38634 -109.25928 34918 ft 536 kts 80°
2026-05-05 13:55 37.40541 -109.16868 34905 ft 536 kts 80°
2026-05-05 13:55 37.42442 -109.07804 34886 ft 536 kts 79°
2026-05-05 13:56 37.44321 -108.98801 34892 ft 536 kts 79°
2026-05-05 13:56 37.46207 -108.89722 34898 ft 536 kts 80°
2026-05-05 13:57 37.48083 -108.80655 34904 ft 536 kts 80°
2026-05-05 13:57 37.49956 -108.71567 34962 ft 536 kts 79°
2026-05-05 13:58 37.51824 -108.62469 34962 ft 537 kts 80°
2026-05-05 13:58 37.53696 -108.53310 34945 ft 537 kts 80°
2026-05-05 13:59 37.56469 -108.39672 34923 ft 536 kts 79°
2026-05-05 14:00 37.58930 -108.27479 34929 ft 538 kts 80°
2026-05-05 14:00 37.61071 -108.16830 34923 ft 538 kts 80°
2026-05-05 14:01 37.62906 -108.07668 34936 ft 538 kts 80°
2026-05-05 14:01 37.64725 -107.98524 34958 ft 538 kts 80°
2026-05-05 14:02 37.66548 -107.89324 34968 ft 538 kts 80°
2026-05-05 14:02 37.68358 -107.80159 34939 ft 538 kts 80°
2026-05-05 14:03 37.70150 -107.71044 34934 ft 538 kts 80°
2026-05-05 14:03 37.71950 -107.61852 34935 ft 539 kts 80°
2026-05-05 14:04 37.73733 -107.52680 34933 ft 539 kts 80°
2026-05-05 14:04 37.75524 -107.43448 34932 ft 539 kts 80°
2026-05-05 14:05 37.77294 -107.34275 34925 ft 539 kts 79°
2026-05-05 14:05 37.79056 -107.25110 34920 ft 540 kts 80°
2026-05-05 14:06 37.80827 -107.15871 34909 ft 540 kts 80°
2026-05-05 14:06 37.82590 -107.06617 34912 ft 541 kts 80°
2026-05-05 14:07 37.84347 -106.97342 34909 ft 541 kts 79°
2026-05-05 14:07 37.86084 -106.88128 34901 ft 541 kts 79°
2026-05-05 14:08 37.87823 -106.78871 34903 ft 541 kts 79°
2026-05-05 14:08 37.89556 -106.69607 34890 ft 541 kts 80°
2026-05-05 14:09 37.91286 -106.60310 34906 ft 542 kts 79°
2026-05-05 14:09 37.93005 -106.51022 34922 ft 541 kts 79°
2026-05-05 14:10 37.94719 -106.41733 34923 ft 542 kts 79°
2026-05-05 14:10 37.96425 -106.32433 34899 ft 542 kts 79°
2026-05-05 14:11 37.98115 -106.23166 34833 ft 545 kts 79°
2026-05-05 14:11 37.99816 -106.13802 34828 ft 545 kts 79°
2026-05-05 14:12 38.01512 -106.04429 34834 ft 545 kts 79°
2026-05-05 14:12 38.03198 -105.95073 34830 ft 544 kts 79°
2026-05-05 14:13 38.04881 -105.85676 34832 ft 544 kts 79°
2026-05-05 14:13 38.06543 -105.76350 34842 ft 544 kts 79°
2026-05-05 14:14 38.08210 -105.66947 34835 ft 543 kts 79°
2026-05-05 14:14 38.09866 -105.57570 34849 ft 543 kts 79°
2026-05-05 14:15 38.11232 -105.49788 34859 ft 544 kts 79°
2026-05-05 14:15 38.12867 -105.40440 34859 ft 544 kts 79°
2026-05-05 14:16 38.14500 -105.31057 34872 ft 544 kts 79°
2026-05-05 14:16 38.16126 -105.21664 34882 ft 544 kts 79°
2026-05-05 14:17 38.17744 -105.12263 34898 ft 544 kts 79°
2026-05-05 14:17 38.19355 -105.02855 34916 ft 545 kts 79°
2026-05-05 14:18 38.20950 -104.93502 34907 ft 545 kts 79°
2026-05-05 14:18 38.22555 -104.84055 34938 ft 546 kts 79°
2026-05-05 14:19 38.24149 -104.74607 34968 ft 547 kts 79°
2026-05-05 14:19 38.25738 -104.65144 34994 ft 547 kts 79°
2026-05-05 14:20 38.27309 -104.55742 35008 ft 547 kts 79°
2026-05-05 14:20 38.28883 -104.46270 35009 ft 546 kts 79°
2026-05-05 14:21 38.30195 -104.36732 35004 ft 545 kts 85°
2026-05-05 14:21 38.30641 -104.31974 35251 ft 541 kts 86°
2026-05-05 14:21 38.31041 -104.27223 35608 ft 539 kts 86°
2026-05-05 14:22 38.31440 -104.22422 35848 ft 540 kts 86°
2026-05-05 14:22 38.31842 -104.17689 36027 ft 543 kts 86°
2026-05-05 14:22 38.32261 -104.12901 36183 ft 545 kts 85°
2026-05-05 14:22 38.32694 -104.08093 36357 ft 548 kts 85°
2026-05-05 14:23 38.33130 -104.03312 36539 ft 550 kts 85°
2026-05-05 14:23 38.33578 -103.98421 36715 ft 552 kts 85°
2026-05-05 14:23 38.34026 -103.93530 36882 ft 554 kts 85°
2026-05-05 14:23 38.34470 -103.88671 36947 ft 555 kts 85°
2026-05-05 14:24 38.35354 -103.78888 36951 ft 556 kts 85°
2026-05-05 14:24 38.36229 -103.69097 36962 ft 557 kts 85°
2026-05-05 14:25 38.37092 -103.59338 36973 ft 557 kts 85°
2026-05-05 14:25 38.37952 -103.49513 36991 ft 557 kts 85°
2026-05-05 14:26 38.38801 -103.39720 36979 ft 557 kts 85°
2026-05-05 14:26 38.39646 -103.29875 36983 ft 558 kts 85°
2026-05-05 14:27 38.40481 -103.20046 36983 ft 558 kts 85°
2026-05-05 14:27 38.41309 -103.10212 36983 ft 558 kts 85°
2026-05-05 14:28 38.42123 -103.00428 36985 ft 558 kts 85°
2026-05-05 14:28 38.42942 -102.90493 36984 ft 558 kts 85°
2026-05-05 14:29 38.43738 -102.80741 36985 ft 558 kts 85°
2026-05-05 14:29 38.44532 -102.70893 36988 ft 558 kts 85°
2026-05-05 14:30 38.45323 -102.60984 36992 ft 559 kts 85°
2026-05-05 14:30 38.46103 -102.51108 36993 ft 559 kts 85°
2026-05-05 14:31 38.46872 -102.41277 36991 ft 559 kts 85°
2026-05-05 14:31 38.47636 -102.31383 36991 ft 559 kts 85°
2026-05-05 14:32 38.48389 -102.21541 36990 ft 559 kts 85°
2026-05-05 14:32 38.49136 -102.11663 36969 ft 559 kts 85°
2026-05-05 14:33 38.49874 -102.01780 36985 ft 558 kts 85°
2026-05-05 14:33 38.50792 -101.91923 36987 ft 559 kts 82°
2026-05-05 14:34 38.51896 -101.82106 36984 ft 559 kts 82°
2026-05-05 14:34 38.52996 -101.72306 36981 ft 559 kts 82°
2026-05-05 14:35 38.54056 -101.62519 36981 ft 559 kts 82°
2026-05-05 14:35 38.55097 -101.52685 36980 ft 559 kts 83°
2026-05-05 14:36 38.56128 -101.42845 36977 ft 559 kts 83°
2026-05-05 14:36 38.57156 -101.32959 36972 ft 559 kts 83°
2026-05-05 14:37 38.58171 -101.23158 36982 ft 560 kts 83°
2026-05-05 14:37 38.59183 -101.13278 36993 ft 561 kts 83°
2026-05-05 14:38 38.60181 -101.03427 37013 ft 561 kts 83°
2026-05-05 14:38 38.61176 -100.93528 37025 ft 561 kts 83°
2026-05-05 14:39 38.62164 -100.83625 37021 ft 561 kts 83°
2026-05-05 14:39 38.63144 -100.73721 37006 ft 561 kts 83°
2026-05-05 14:40 38.64116 -100.63815 36986 ft 561 kts 83°
2026-05-05 14:40 38.65079 -100.53905 36960 ft 561 kts 83°
2026-05-05 14:41 38.66033 -100.43991 36951 ft 562 kts 83°
2026-05-05 14:41 38.66980 -100.34068 36949 ft 562 kts 83°
2026-05-05 14:42 38.67923 -100.24093 36952 ft 562 kts 83°
2026-05-05 14:42 38.68849 -100.14213 36954 ft 562 kts 83°
2026-05-05 14:43 38.69773 -100.04259 36953 ft 562 kts 83°
2026-05-05 14:43 38.70680 -99.94391 36953 ft 562 kts 83°
2026-05-05 14:44 38.71586 -99.84450 36952 ft 562 kts 83°
2026-05-05 14:44 38.72483 -99.74507 36953 ft 562 kts 83°
2026-05-05 14:45 38.73373 -99.64549 36951 ft 563 kts 83°
2026-05-05 14:45 38.74254 -99.54585 36952 ft 563 kts 83°
2026-05-05 14:46 38.75127 -99.44621 36956 ft 563 kts 83°
2026-05-05 14:46 38.75994 -99.34623 37014 ft 564 kts 83°
2026-05-05 14:47 38.76852 -99.24635 37017 ft 564 kts 83°
2026-05-05 14:47 38.77696 -99.14711 37010 ft 564 kts 83°
2026-05-05 14:48 38.78542 -99.04650 36994 ft 564 kts 83°
2026-05-05 14:48 38.79371 -98.94694 36982 ft 564 kts 83°
2026-05-05 14:49 38.80196 -98.84684 36990 ft 565 kts 83°
2026-05-05 14:49 38.81012 -98.74672 36990 ft 565 kts 83°
2026-05-05 14:50 38.81819 -98.64657 36981 ft 564 kts 83°
2026-05-05 14:50 38.82618 -98.54643 36970 ft 564 kts 83°
2026-05-05 14:51 38.83408 -98.44626 36961 ft 564 kts 83°
2026-05-05 14:51 38.84190 -98.34608 36949 ft 564 kts 84°
2026-05-05 14:52 38.84963 -98.24585 36955 ft 564 kts 83°
2026-05-05 14:52 38.85727 -98.14564 36958 ft 565 kts 83°
2026-05-05 14:53 38.86479 -98.04605 36965 ft 565 kts 83°
2026-05-05 14:53 38.87228 -97.94554 36977 ft 564 kts 83°
2026-05-05 14:54 38.87967 -97.84522 36981 ft 565 kts 83°
2026-05-05 14:54 38.88698 -97.74476 36987 ft 565 kts 83°
2026-05-05 14:55 38.89421 -97.64436 36988 ft 565 kts 84°
2026-05-05 14:55 38.90131 -97.54439 36986 ft 565 kts 83°
2026-05-05 14:56 38.90836 -97.44398 36968 ft 564 kts 83°
2026-05-05 14:56 38.91531 -97.34359 36968 ft 564 kts 83°
2026-05-05 14:57 38.92219 -97.24319 36966 ft 564 kts 83°
2026-05-05 14:57 38.92898 -97.14276 36972 ft 564 kts 84°
2026-05-05 14:58 38.93569 -97.04210 36982 ft 564 kts 84°
2026-05-05 14:58 38.94231 -96.94163 36989 ft 564 kts 84°
2026-05-05 14:59 38.94879 -96.84185 36992 ft 564 kts 84°
2026-05-05 14:59 38.95522 -96.74135 36997 ft 564 kts 83°
2026-05-05 15:00 38.96052 -96.65773 36996 ft 564 kts 84°
2026-05-05 15:00 38.96786 -96.54044 36963 ft 564 kts 84°
2026-05-05 15:01 38.97404 -96.43994 36973 ft 564 kts 83°
2026-05-05 15:01 38.98013 -96.33942 36950 ft 564 kts 84°
2026-05-05 15:02 38.98513 -96.25576 36971 ft 564 kts 84°
2026-05-05 15:02 38.99107 -96.15516 36951 ft 564 kts 84°
2026-05-05 15:03 38.99692 -96.05464 36969 ft 564 kts 84°
2026-05-05 15:03 39.00370 -95.93766 36965 ft 562 kts 83°
2026-05-05 15:04 39.00859 -95.85363 36984 ft 562 kts 84°
2026-05-05 15:04 39.01432 -95.75373 36995 ft 562 kts 84°
2026-05-05 15:05 39.02275 -95.60398 36990 ft 561 kts 84°
2026-05-05 15:06 39.02828 -95.50392 36987 ft 561 kts 84°
2026-05-05 15:06 39.03372 -95.40386 36988 ft 561 kts 84°
2026-05-05 15:07 39.03908 -95.30355 36980 ft 561 kts 84°
2026-05-05 15:07 39.04434 -95.20366 36978 ft 560 kts 84°
2026-05-05 15:08 39.04951 -95.10369 36981 ft 560 kts 84°
2026-05-05 15:08 39.05460 -95.00369 36974 ft 560 kts 84°
2026-05-05 15:09 39.05961 -94.90368 36963 ft 560 kts 84°
2026-05-05 15:09 39.06452 -94.80367 36951 ft 560 kts 84°
2026-05-05 15:10 39.06936 -94.70363 36945 ft 560 kts 84°
2026-05-05 15:10 39.07409 -94.60392 36983 ft 560 kts 84°
2026-05-05 15:11 39.07874 -94.50384 36977 ft 560 kts 84°
2026-05-05 15:11 39.08332 -94.40379 36974 ft 560 kts 84°
2026-05-05 15:12 39.08781 -94.30377 36971 ft 560 kts 84°
2026-05-05 15:12 39.09223 -94.20352 36964 ft 560 kts 84°
2026-05-05 15:13 39.09115 -94.10341 36948 ft 561 kts 99°
2026-05-05 15:13 39.07612 -94.00493 36937 ft 561 kts 103°
2026-05-05 15:14 39.06015 -93.90666 36949 ft 561 kts 103°
2026-05-05 15:14 39.04436 -93.80898 36961 ft 561 kts 103°
2026-05-05 15:15 39.02848 -93.71082 36942 ft 561 kts 103°
2026-05-05 15:15 39.01251 -93.61262 36951 ft 561 kts 103°
2026-05-05 15:16 38.99645 -93.51441 36958 ft 561 kts 103°
2026-05-05 15:16 38.98025 -93.41583 36963 ft 561 kts 103°
2026-05-05 15:17 38.96409 -93.31804 36970 ft 561 kts 103°
2026-05-05 15:17 38.94780 -93.22002 36989 ft 561 kts 103°
2026-05-05 15:18 38.93149 -93.12242 36979 ft 564 kts 103°
2026-05-05 15:18 38.91483 -93.02326 36956 ft 571 kts 103°
2026-05-05 15:19 38.89796 -92.92343 36932 ft 571 kts 103°
2026-05-05 15:19 38.88107 -92.82393 36913 ft 570 kts 103°
2026-05-05 15:19 38.87261 -92.77434 36755 ft 566 kts 103°
2026-05-05 15:20 38.86421 -92.72520 36390 ft 558 kts 103°
2026-05-05 15:20 38.85585 -92.67646 35473 ft 563 kts 103°
2026-05-05 15:20 38.84740 -92.62732 34639 ft 565 kts 103°
2026-05-05 15:20 38.83891 -92.57810 33791 ft 566 kts 103°
2026-05-05 15:21 38.83032 -92.52843 33045 ft 562 kts 103°
2026-05-05 15:21 38.82192 -92.47991 32533 ft 553 kts 103°
2026-05-05 15:21 38.81368 -92.43249 31944 ft 546 kts 103°
2026-05-05 15:21 38.80553 -92.38570 31390 ft 540 kts 104°
2026-05-05 15:22 38.79738 -92.33901 30852 ft 534 kts 104°
2026-05-05 15:22 38.78930 -92.29285 30316 ft 528 kts 104°
2026-05-05 15:22 38.78127 -92.24714 29754 ft 523 kts 104°
2026-05-05 15:22 38.77332 -92.20191 29168 ft 517 kts 104°
2026-05-05 15:23 38.76545 -92.15728 28630 ft 510 kts 104°
2026-05-05 15:23 38.75767 -92.11324 28134 ft 503 kts 104°
2026-05-05 15:23 38.74998 -92.06980 27619 ft 497 kts 105°
2026-05-05 15:23 38.74236 -92.02693 27129 ft 490 kts 105°
2026-05-05 15:24 38.73490 -91.98497 26638 ft 485 kts 105°
2026-05-05 15:24 38.72745 -91.94309 26159 ft 479 kts 105°
2026-05-05 15:24 38.72015 -91.90172 25680 ft 473 kts 105°
2026-05-05 15:24 38.71292 -91.86083 25211 ft 468 kts 105°
2026-05-05 15:25 38.70575 -91.82034 24739 ft 464 kts 106°
2026-05-05 15:25 38.69859 -91.78004 24264 ft 460 kts 106°
2026-05-05 15:25 38.69286 -91.74001 23769 ft 460 kts 97°
2026-05-05 15:25 38.69179 -91.69917 23260 ft 458 kts 92°
2026-05-05 15:26 38.69203 -91.65856 22715 ft 454 kts 91°
2026-05-05 15:26 38.69238 -91.61844 22244 ft 448 kts 91°
2026-05-05 15:26 38.69267 -91.57881 21750 ft 443 kts 91°
2026-05-05 15:26 38.69291 -91.53946 21259 ft 438 kts 91°
2026-05-05 15:27 38.69311 -91.50070 20771 ft 433 kts 91°
2026-05-05 15:27 38.69327 -91.46288 20299 ft 429 kts 91°
2026-05-05 15:27 38.69341 -91.42491 19823 ft 425 kts 91°
2026-05-05 15:27 38.69356 -91.38732 19350 ft 420 kts 91°
2026-05-05 15:28 38.69370 -91.35009 18873 ft 416 kts 90°
2026-05-05 15:28 38.69382 -91.31318 18396 ft 412 kts 90°
2026-05-05 15:28 38.69394 -91.27664 17898 ft 408 kts 90°
2026-05-05 15:28 38.69404 -91.24050 17420 ft 403 kts 90°
2026-05-05 15:29 38.69422 -91.20499 17025 ft 396 kts 89°
2026-05-05 15:29 38.69499 -91.17001 16575 ft 390 kts 88°
2026-05-05 15:29 38.69592 -91.13550 16111 ft 385 kts 88°
2026-05-05 15:29 38.69684 -91.10144 15678 ft 380 kts 88°
2026-05-05 15:30 38.69772 -91.06778 15232 ft 376 kts 88°
2026-05-05 15:30 38.69857 -91.03455 14790 ft 371 kts 88°
2026-05-05 15:30 38.69938 -91.00171 14348 ft 367 kts 88°
2026-05-05 15:30 38.70017 -90.96921 13887 ft 364 kts 88°
2026-05-05 15:31 38.70093 -90.93730 13416 ft 360 kts 88°
2026-05-05 15:31 38.70168 -90.90563 12973 ft 355 kts 88°
2026-05-05 15:31 38.70242 -90.87428 12556 ft 349 kts 89°
2026-05-05 15:31 38.70313 -90.84343 12126 ft 344 kts 89°
2026-05-05 15:32 38.70383 -90.81300 11687 ft 340 kts 89°
2026-05-05 15:32 38.70451 -90.78298 11286 ft 335 kts 89°
2026-05-05 15:32 38.70517 -90.75332 10874 ft 331 kts 89°
2026-05-05 15:32 38.70589 -90.72408 10526 ft 325 kts 89°
2026-05-05 15:33 38.70703 -90.69584 10441 ft 310 kts 88°
2026-05-05 15:33 38.70823 -90.66873 10261 ft 305 kts 88°
2026-05-05 15:33 38.70942 -90.64136 9825 ft 310 kts 88°
2026-05-05 15:33 38.71061 -90.61362 9400 ft 313 kts 88°
2026-05-05 15:34 38.71182 -90.58595 9039 ft 310 kts 88°
2026-05-05 15:34 38.71303 -90.55851 8608 ft 307 kts 89°
2026-05-05 15:34 38.71274 -90.53147 8282 ft 300 kts 102°
2026-05-05 15:34 38.70558 -90.50751 8205 ft 280 kts 122°
2026-05-05 15:35 38.69579 -90.48670 8121 ft 267 kts 126°
2026-05-05 15:35 38.68596 -90.46697 8013 ft 259 kts 126°
2026-05-05 15:35 38.67637 -90.44775 7989 ft 253 kts 126°
2026-05-05 15:35 38.66713 -90.42914 7966 ft 248 kts 126°
2026-05-05 15:36 38.65783 -90.41042 7755 ft 251 kts 127°
2026-05-05 15:36 38.64847 -90.39158 7504 ft 251 kts 127°
2026-05-05 15:36 38.63912 -90.37273 7285 ft 249 kts 127°
2026-05-05 15:36 38.62991 -90.35411 7088 ft 247 kts 127°
2026-05-05 15:37 38.62071 -90.33550 6862 ft 248 kts 128°
2026-05-05 15:37 38.61152 -90.31696 6681 ft 245 kts 128°
2026-05-05 15:37 38.60241 -90.29859 6479 ft 244 kts 127°
2026-05-05 15:37 38.59348 -90.28022 6235 ft 243 kts 127°
2026-05-05 15:38 38.58466 -90.26186 5985 ft 242 kts 126°
2026-05-05 15:38 38.57662 -90.24298 5731 ft 242 kts 122°
2026-05-05 15:38 38.56891 -90.22398 5471 ft 240 kts 121°
2026-05-05 15:38 38.56128 -90.20532 5332 ft 234 kts 122°
2026-05-05 15:39 38.55403 -90.18700 5207 ft 227 kts 122°
2026-05-05 15:39 38.54707 -90.16957 5115 ft 215 kts 117°
2026-05-05 15:39 38.54495 -90.15143 5011 ft 208 kts 83°
2026-05-05 15:39 38.55129 -90.13570 4982 ft 196 kts 47°
2026-05-05 15:40 38.56209 -90.12492 5006 ft 201 kts 34°
2026-05-05 15:40 38.57386 -90.11532 4973 ft 200 kts 32°
2026-05-05 15:40 38.58598 -90.10570 4984 ft 209 kts 32°
2026-05-05 15:40 38.59850 -90.09627 4966 ft 207 kts 24°
2026-05-05 15:41 38.61256 -90.09207 4885 ft 208 kts 358°
2026-05-05 15:41 38.62620 -90.09738 4697 ft 209 kts 320°
2026-05-05 15:41 38.63499 -90.11211 4407 ft 212 kts 295°
2026-05-05 15:41 38.64180 -90.12829 4172 ft 206 kts 297°
2026-05-05 15:42 38.64822 -90.14478 3879 ft 202 kts 294°
2026-05-05 15:42 38.65383 -90.16088 3622 ft 196 kts 294°
2026-05-05 15:42 38.65910 -90.17679 3407 ft 196 kts 295°
2026-05-05 15:42 38.66426 -90.19304 3268 ft 199 kts 295°
2026-05-05 15:43 38.66985 -90.20925 3164 ft 199 kts 298°
2026-05-05 15:43 38.67595 -90.22484 3060 ft 192 kts 303°
2026-05-05 15:43 38.68177 -90.23997 2949 ft 186 kts 302°
2026-05-05 15:43 38.68846 -90.25428 2705 ft 188 kts 310°
2026-05-05 15:44 38.69607 -90.26698 2476 ft 171 kts 317°
2026-05-05 15:44 38.70360 -90.27805 2171 ft 158 kts 317°
2026-05-05 15:44 38.70976 -90.28908 1885 ft 147 kts 309°
2026-05-05 15:44 38.71459 -90.30029 1528 ft 140 kts 308°
2026-05-05 15:45 38.71966 -90.31066 1343 ft 137 kts 313°
2026-05-05 15:45 38.72505 -90.32069 1126 ft 137 kts 309°
2026-05-05 15:45 38.72995 -90.33096 966 ft 131 kts 308°
2026-05-05 15:45 38.73484 -90.34072 765 ft 129 kts 308°
2026-05-05 15:46 38.73960 -90.35030 613 ft 125 kts 305°
2026-05-05 15:46 38.74381 -90.35868 584 ft 97 kts 302°
2026-05-05 15:46 38.74627 -90.36370 573 ft 34 kts 301°
2026-05-05 15:46 38.74720 -90.36560 568 ft 22 kts 305°
2026-05-05 15:47 38.74805 -90.36725 572 ft 23 kts 302°
2026-05-05 15:47 38.74856 -90.36843 574 ft 19 kts 281°
2026-05-05 15:47 38.74771 -90.36936 566 ft 6 kts 151°
2026-05-05 15:47 38.74731 -90.36861 570 ft 16 kts 124°
2026-05-05 15:48 38.74660 -90.36718 570 ft 20 kts 123°
2026-05-05 15:48 38.74589 -90.36570 571 ft 15 kts 121°
2026-05-05 15:48 38.74533 -90.36459 574 ft 15 kts 123°
2026-05-05 15:48 38.74477 -90.36346 574 ft 15 kts 122°
2026-05-05 15:49 38.74454 -90.36297 576 ft 1 kts 121°
2026-05-05 15:49 38.74447 -90.36289 574 ft 1 kts 142°
2026-05-05 15:49 38.74442 -90.36289 573 ft 1 kts 174°
2026-05-05 15:49 38.74433 -90.36293 575 ft 3 kts 194°
2026-05-05 15:50 38.74406 -90.36295 572 ft 5 kts 174°
2026-05-05 15:50 38.74374 -90.36298 571 ft 4 kts 210°
2026-05-05 15:50 38.74351 -90.36320 575 ft 2 kts 237°
2026-05-05 15:50 38.74335 -90.36356 574 ft 0 kts 239°
2026-05-05 15:51 38.74330 -90.36363 572 ft 1 kts 228°
2026-05-05 15:51 38.74326 -90.36364 576 ft 0 kts 204°
2026-05-05 15:51 38.74325 -90.36364 576 ft 1 kts 200°
2026-05-05 15:51 38.74321 -90.36362 576 ft 1 kts 175°
2026-05-05 15:52 38.74310 -90.36357 577 ft 1 kts 159°
2026-05-05 15:52 38.74310 -90.36356 577 ft 0 kts 159°
2026-05-05 15:52 38.74297 -90.36349 575 ft 1 kts 153°
2026-05-05 15:53 38.74288 -90.36343 578 ft 0 kts 153°